Location: Unspecified
(0.0000°N, 0.0000°E)
Time: 16:06:11
(UTC+00:00)

CZ-3C DEB - Pass Details

Date: 14 March 2026
Orbit: 640 x 36740 km, 20.7° (Epoch: 1 May)

Event Time Altitude Azimuth Distance (km) Brightness Sun altitude
Rises 09:22:19 0° 295° (WNW) 8,705 ? 48.2°
Reaches altitude 10° 09:26:19 10° 298° (WNW) 8,856 ? 49.2°
Maximum altitude 11:54:50 73° 319° (NW) 30,153 ? 85.7°
Enters shadow 19:48:00 17° 134° (SE) 4,039 ? -24.7°
